STARLINK-5531, 55383

Orbit data source: Space-Track

STARLINK-5531, 55383 is a payload satellite owned by SpaceX/Seattle (US) in LEO that was launched on Thu, 26 Jan 2023 UTC via an FALCON 9 launch vehicle from the Air Force Eastern Test Range (AFETR). Payload-class satellites include a variety of spacecraft equipped with specific instruments for various scientific and technological missions. These include communications satellites like Starlink; space stations such as the ISS; scientific satellites like the Hubble; Earth observation satellites from companies like Planet Labs, Umbra, and HawkEye 360; GPS; miniature CubeSats for education and research; and military/defense satellites.

Loading next visibility...
Identifier
55383, 2023-013BE
Orbit
LEO
Country
Flag of USUS
Related business
Manufacturer
SpaceX/Seattle
Mission
Operational Commercial Communications
Bus & Motor
STARLINK, Unknown motor
Mass
305 kg wet, ~290 kg dry
Launch date (UTC)
2023-01-26 (3 years ago)
Launch vehicle
FALCON 9
Launch site
Air Force Eastern Test Range (AFETR)
Object type
Payload
Rocket body
Debris
Shape & HBR
Box + 1 Pan, 10.1 m
Radar Cross Section
13.562 m², Large (>1 m²)

Expand to show TLE details & history
Last TLE update: 2 days ago

TLE from 2 days ago
0 STARLINK-5531
1 55383U 23013BE  25348.14030202  .00004708  00000-0  36336-3 0  9990
2 55383  43.0037  31.9053 0001201 265.1799  94.8906 15.02537375158993
Epoch: 2025-12-14T03:22Z
TLE epoch observation values (Epoch: 2025-12-14T03:22:02.094Z)
Latitude
-0.00004°
Longitude
-101.66096°
Altitude
558.925 km
Speed
7.584 km/s
True Right ascension
02h 07m 37s
True Declination
0° 00' 00"
Sunlit
Object was in full shadow at epoch
Visualization orbit readout
Latitude
Unknown
Longitude
Unknown
Altitude
Unknown
Speed
Unknown
Apparent Right ascension
Unknown
Apparent Declination
Unknown
Sunlit
N/A
Visualization observer readout
Local Sidereal Time
17:04:31
Azimuth
Unknown
Elevation
Unknown
Doppler factor
Unknown
Orbital elements
Apogee altitude
561.832 km
Perigee altitude
560.165 km
Semi-major axis
6,939.136 km
Eccentricity
0.00012
Inclination
43.0037°
RAAN
31.9053°
Arg. of periapsis
265.1799°
True anomaly
94.90431°
Mean anomaly
94.8906°
Eccentric anomaly
94.89746°
Mean motion
3.75479 °/min
Orbital period
95.88 mins
BSTAR
0.00036336
Loading maneuver chart data...
Computing Atmospheric mass density...
Loading historical data...
Loading historical data...
Loading historical data...
Loading historical data...
Loading historical data...
Loading historical data...
Loading historical data...

Documentation

Showing up to 5 results
|